TimeMST,TemperatureF,Dew PointF,Humidity,Sea Level PressureIn,VisibilityMPH,Wind Direction,Wind SpeedMPH,Gust SpeedMPH,PrecipitationIn,Events,Conditions,WindDirDegrees,DateUTC
12:53 AM,-0.0,-4.0,83,30.20,10.0,Calm,Calm,-,N/A,,Clear,0,2013-01-04 07:53:00
1:53 AM,1.0,-2.0,87,30.19,10.0,WNW,3.5,-,N/A,,Clear,300,2013-01-04 08:53:00
2:53 AM,-0.0,-2.9,88,30.20,10.0,NW,8.1,-,N/A,,Clear,320,2013-01-04 09:53:00
3:53 AM,3.0,-0.9,84,30.19,10.0,North,8.1,-,N/A,,Clear,350,2013-01-04 10:53:00
4:53 AM,1.4,-2.2,85,30.02,10.0,NW,3.5,-,N/A,,Clear,320,2013-01-04 11:53:00
5:53 AM,-0.9,-5.1,83,30.18,10.0,Calm,Calm,-,N/A,,Clear,0,2013-01-04 12:53:00
6:53 AM,1.0,-4.0,79,30.17,10.0,Calm,Calm,-,N/A,,Clear,0,2013-01-04 13:53:00
7:53 AM,1.0,-2.9,83,30.18,10.0,NNW,6.9,-,N/A,,Clear,330,2013-01-04 14:53:00
8:53 AM,6.1,1.9,83,30.17,10.0,North,3.5,-,N/A,,Clear,10,2013-01-04 15:53:00
9:53 AM,3.9,1.0,88,30.17,10.0,Calm,Calm,-,N/A,,Clear,0,2013-01-04 16:53:00
10:53 AM,9.0,1.9,73,30.17,10.0,Calm,Calm,-,N/A,,Partly Cloudy,0,2013-01-04 17:53:00
11:08 AM,8.6,3.2,79,30.00,10.0,Calm,Calm,-,N/A,,Mostly Cloudy,0,2013-01-04 18:08:00
11:24 AM,12.2,3.2,67,30.00,10.0,Calm,Calm,-,N/A,,Scattered Clouds,0,2013-01-04 18:24:00
11:53 AM,17.1,8.1,68,30.14,10.0,Calm,Calm,-,N/A,,Clear,0,2013-01-04 18:53:00
12:53 PM,19.9,10.9,68,30.11,10.0,Calm,Calm,-,N/A,,Clear,0,2013-01-04 19:53:00
1:53 PM,17.1,7.0,65,30.10,10.0,Calm,Calm,-,N/A,,Clear,0,2013-01-04 20:53:00
2:53 PM,17.1,10.0,74,30.10,10.0,SSE,4.6,-,N/A,,Clear,160,2013-01-04 21:53:00
3:53 PM,18.0,10.0,71,30.09,10.0,Calm,Calm,-,N/A,,Clear,0,2013-01-04 22:53:00
4:53 PM,14.0,7.0,74,30.10,10.0,Calm,Calm,-,N/A,,Clear,0,2013-01-04 23:53:00
5:53 PM,12.9,7.0,77,30.09,10.0,SW,6.9,-,N/A,,Clear,230,2013-01-05 00:53:00
6:53 PM,21.0,15.1,78,30.07,10.0,West,9.2,-,N/A,,Clear,260,2013-01-05 01:53:00
7:53 PM,21.0,16.0,81,30.07,10.0,NW,8.1,-,N/A,,Clear,310,2013-01-05 02:53:00
8:53 PM,19.0,14.0,81,30.08,10.0,North,4.6,-,N/A,,Clear,360,2013-01-05 03:53:00
9:53 PM,25.0,19.0,78,30.11,10.0,NW,15.0,-,N/A,,Clear,320,2013-01-05 04:53:00
10:53 PM,21.9,15.1,75,30.14,10.0,NNW,11.5,21.9,N/A,,Clear,330,2013-01-05 05:53:00
11:53 PM,19.9,12.0,71,30.17,10.0,North,12.7,19.6,N/A,,Clear,360,2013-01-05 06:53:00